Вернуться в каталог

STARLINK-5120

АктивенСвязьVLEO
NORAD 53982·PAYLOAD·🇺🇸 United States

Запущен Oct 5, 2022 с Vandenberg Space Force Base

Loading…

Ближайшие Пролёты (ближайшие 24 часа)

TLE

СвежийSource: CelesTrak SupGP

Эпоха: Sep 15, 2026, 01:48 UTC

1 53982C 22125U   26258.07548611  .00708650  00000+0  31640-1 0  2582
2 53982  53.1594  82.9323 0001153  82.1123 100.4139 15.20490324    19

Отслеживайте STARLINK-5120 в реальном времени с AllMySat

Download on the App Store